Weather History for Tozeur, Tunisia

Change the Weather History Date:

Tuesday, February 12, 2013

  Actual Average Record
Temperature  
Mean Temperature 52 °F -  
Max Temperature 59 °F - - ()
Min Temperature 44 °F - - ()
Degree Days  
Heating Degree Days 14    
Growing Degree Days 2 (Base 50)    
Moisture  
Dew Point 30 °F    
Average Humidity 44    
Maximum Humidity 71    
Minimum Humidity 16    
Precipitation  
Precipitation 0.00 in - - ()
Sea Level Pressure  
Sea Level Pressure 29.84 in    
Wind  
Wind Speed 15 mph ()    
Max Wind Speed 24 mph    
Max Gust Speed -    
Visibility 4.0 miles    
Events      
T = Trace of Precipitation, MM = Missing Value Source: Averaged Metar Reports

Daily Weather History Graph

Daily Weather History Graph

Search for Another Location

Airport:

Trip Planner

Search our weather history database for the weather conditions in past years. The results will help you decide how hot, cold, wet, or windy it might be!

Date:

Astronomy

Feb. 12, 2013 Rise Set
Actual Time 7:15 AM CET 6:08 PM CET
Civil Twilight 6:49 AM CET 6:34 PM CET
Nautical Twilight 6:20 AM CET 7:03 PM CET
Astronomical Twilight 5:50 AM CET 7:33 PM CET
Moon 8:12 AM CET (2/12) 8:41 PM CET (2/12)
Length of Visible Light 11h 45m
Length of Day
10h 53m
Waxing Crescent, 6% of the Moon is Illuminated
Feb 12
Waxing Crescent
Feb 17
First Quarter
Feb 25
Full
Mar 4
Last Quarter
Mar 11
New

Hourly Weather History & Observations

Time (CET) Temp. Windchill Dew Point Humidity Pressure Visibility Wind Dir Wind Speed Gust Speed Precip Events Conditions
1:00 AM 51 °F - 39 °F 52% 29.82 in 4 mi SW 10.4 mph - -   Clear
1:00 AM 50.0 °F - 39.2 °F 66% 29.80 in 4.3 mi SW 9.2 mph - N/A   Unknown
2:00 AM 51.8 °F - 35.6 °F 54% 29.80 in 4.3 mi West 20.7 mph - N/A   Unknown
3:00 AM 51.8 °F - 35.6 °F 54% 29.80 in 4.3 mi West 18.4 mph - N/A   Unknown
6:00 AM 46.4 °F 40.1 °F 33.8 °F 62% 29.77 in 5.0 mi West 15.0 mph - N/A   Unknown
7:00 AM 44 °F - 35 °F 60% 29.80 in 5 mi West 15.0 mph - -  
7:00 AM 44.6 °F 37.8 °F 35.6 °F 71% 29.77 in 5.0 mi West 15.0 mph - N/A   Unknown
8:00 AM 44.6 °F 36.6 °F 33.8 °F 66% 29.80 in 3.7 mi West 19.6 mph - N/A   Partly Cloudy
9:00 AM 46.4 °F 39.0 °F 33.8 °F 62% 29.83 in 3.7 mi West 19.6 mph - N/A   Partly Cloudy
10:00 AM 46 °F - 33 °F 50% 29.86 in 4 mi West 24.2 mph - -   Scattered Clouds
10:00 AM 46.4 °F 38.1 °F 33.8 °F 62% 29.83 in 3.7 mi West 24.2 mph - N/A   Partly Cloudy
11:00 AM 50.0 °F - 33.8 °F 54% 29.86 in 3.7 mi West 20.7 mph - N/A   Partly Cloudy
12:00 PM 51.8 °F - 33.8 °F 50% 29.86 in 3.7 mi West 19.6 mph - N/A   Partly Cloudy
1:00 PM 57 °F - 31 °F 26% 29.86 in 4 mi West 18.4 mph - -   Scattered Clouds
1:00 PM 57.2 °F - 32.0 °F 38% 29.86 in 3.7 mi West 18.4 mph - N/A   Partly Cloudy
2:00 PM 59.0 °F - 26.6 °F 29% 29.83 in 3.7 mi West 19.6 mph - N/A   Scattered Clouds
3:00 PM 59.0 °F - 24.8 °F 27% 29.83 in 3.7 mi West 17.3 mph - N/A   Scattered Clouds
4:00 PM 59 °F - 25 °F 16% 29.85 in 4 mi West 19.6 mph - -   Partly Cloudy
4:00 PM 59.0 °F - 24.8 °F 27% 29.83 in 3.7 mi West 19.6 mph - N/A   Scattered Clouds
5:00 PM 59.0 °F - 23.0 °F 25% 29.83 in 3.7 mi West 16.1 mph - N/A   Scattered Clouds
6:00 PM 55.4 °F - 26.6 °F 33% 29.86 in 3.7 mi West 16.1 mph - N/A   Scattered Clouds
7:00 PM 53 °F - 24 °F 20% 29.88 in 4 mi West 13.8 mph - -   Partly Cloudy
7:00 PM 53.6 °F - 24.8 °F 33% 29.86 in 3.7 mi West 13.8 mph - N/A   Scattered Clouds
8:00 PM 51.8 °F - 26.6 °F 38% 29.89 in 3.7 mi West 13.8 mph - N/A   Scattered Clouds
9:00 PM 50.0 °F - 26.6 °F 40% 29.89 in 3.7 mi WSW 11.5 mph - N/A   Scattered Clouds
10:00 PM 49 °F - 26 °F 28% 29.92 in 4 mi WSW 13.8 mph - -   Partly Cloudy
10:00 PM 50.0 °F - 26.6 °F 40% 29.92 in 3.7 mi WSW 13.8 mph - N/A   Scattered Clouds
11:00 PM 50.0 °F - 26.6 °F 40% 29.92 in 5.0 mi WSW 15.0 mph - N/A   Partly Cloudy